Lid_Strength_Index
1 -0 -1 -2 -1 -1 -1 -1 -1 -1 -1 -1 -1 -2 -2 -2 -2 -2 -2 -2 -2 -2 -2 -2 -2 -2 -2 -2 -2 -2 -2 -2 -2 -2 -2 -2 -2 -2 -2 -2 -2 0 -2
0 -0 -1 -2 -2 -1 -1 -1 -1 -1 -1 -1 -2 -2 -1 -1 -1 -1 -2 -2 -2 -2 -2 -2 -2 -2 -2 -2 -2 -2 -2 -2 -2 -2 -2 -2 -2 -1 -2 -1 -2 -1 -2
0 -0 -1 -1 -2 -1 -1 -1 -1 -1 -2 -1 -1 -1 -1 -2 -1 -1 -1 -2 -2 -2 -1 -1 -1 -2 -2 -2 -2 -2 -2 -1 -1 -2 -1 1 2 -1 -1 -0 -1 -1 -1
-0 -0 -1 -1 -2 -1 -1 -1 -1 -1 -1 -1 -1 -1 -1 -1 -1 -1 -1 -1 -1 -1 -1 -1 -1 -1 -2 -2 -2 -2 -2 -1 -1 -2 2 2 2 -0 -0 0 -0 -0 -0
0 -0 -0 -1 -1 -1 -1 -1 -1 -1 -1 -1 -1 -1 -1 -2 -2 -2 -1 -2 -1 -1 -1 -1 -1 -2 -1 -1 -1 -1 -1 -0 0 2 3 3 2 0 -1 -1 -0 -0 -0
0 -0 -0 -1 -1 -1 -1 -1 -1 -1 -1 -1 -2 -2 -2 -2 -2 -2 -1 -1 -1 -1 -1 -1 -1 -1 -1 -1 -1 -1 -1 0 2 4 3 2 2 -1 -0 -0 0 0 -0
1 0 -0 -1 -1 -2 -1 -1 -1 -1 -1 -1 -2 -2 -2 -2 -2 -2 -2 -1 -1 -1 -1 -1 -1 -1 -1 -1 -1 -1 -1 -0 3 4 3 2 2 -1 -0 -0 0 0 0
1 0 0 1 -0 -1 -1 -2 -2 -2 -2 -2 -1 -2 -2 -2 -2 -2 -1 -1 -1 -1 -1 -1 -1 -1 -1 -1 -1 -1 -1 -1 2 3 4 3 1 -1 -1 -0 0 0 0
1 0 0 0 0 0 -1 -1 -1 -1 -1 -2 -2 -2 -2 -2 -2 -2 -2 -2 -1 -1 -1 -1 -1 -1 -1 -1 -1 -2 -1 -1 2 2 2 4 1 -1 -1 -1 -1 -0 -0
1 1 1 1 1 1 0 0 0 -1 -1 -1 -1 -0 -0 -0 -1 -1 -1 -2 -2 -2 -2 -2 -2 -1 -1 -1 -2 -2 -1 -0 3 3 3 3 0 -1 -2 -2 -1 -1 -0
2 2 1 1 1 1 1 0 1 0 -0 -0 0 1 1 1 1 1 1 -1 -2 -2 -2 -2 -2 -2 -2 -2 -1 -1 -0 2 3 3 3 2 -0 -1 -2 -2 -2 -2 -1
3 2 2 2 1 1 0 1 1 0 1 0 0 1 1 1 1 0 2 1 -1 -1 -2 -2 -2 -1 -0 1 1 1 2 3 3 3 3 1 -0 -1 -2 -2 -2 -2 -2
3 3 2 2 2 2 2 2 2 2 2 1 1 1 1 1 2 1 1 1 2 2 1 0 0 1 1 1 1 2 2 3 3 3 3 1 -0 -1 -2 -2 -2 -2 -2
3 2 2 2 2 2 2 2 2 2 2 2 2 2 2 3 3 2 2 1 2 2 2 2 2 2 1 1 1 2 2 2 2 3 3 2 1 -1 -1 -2 -2 -2 -2
4 3 2 2 2 2 2 2 2 2 2 2 3 2 3 3 3 3 3 2 2 2 2 3 3 3 3 2 2 2 2 2 2 2 3 3 1 -0 -1 -2 -2 -2 -2
3 3 2 2 2 2 2 2 2 2 2 3 3 2 3 3 3 4 4 3 3 3 2 2 3 3 3 3 2 2 2 2 2 2 3 3 2 0 -1 -2 -2 -2 -2
3 3 3 2 2 2 2 2 2 2 2 2 2 3 2 3 3 3 3 4 4 4 4 4 4 4 4 3 3 3 2 2 2 2 3 3 3 2 1 -1 -2 -2 -2
4 4 4 3 2 2 2 2 2 2 2 2 2 2 3 2 2 3 3 3 2 2 2 3 3 3 4 3 2 2 2 2 3 3 3 3 2 2 2 1 0 -1 -1
5 5 6 6 5 5 4 3 2 2 2 2 2 2 2 2 2 2 3 2 2 1 2 2 3 2 2 3 3 2 2 2 2 2 2 2 2 2 2 2 1 1 0
6 6 6 6 6 6 6 6 6 5 3 1 1 1 1 1 2 2 2 2 2 1 1 2 2 3 2 3 3 3 2 2 2 2 2 3 2 2 2 2 1 2 1
7 7 7 6 6 5 5 6 6 6 5 3 2 0 0 0 0 1 2 2 2 2 1 1 2 2 3 3 3 3 2 2 2 3 3 3 2 2 1 1 1 2 3
8 8 7 6 7 6 6 6 5 5 4 4 2 1 0 1 1 1 2 2 2 2 2 2 2 3 2 2 3 4 5 4 4 3 2 2 2 1 1 2 5 6 7
9 9 8 8 8 8 8 7 5 5 4 4 2 1 3 3 3 2 2 2 2 2 2 2 1 2 3 2 2 3 6 7 5 4 3 2 1 2 3 8 8 9 8
9 9 9 9 9 9 9 7 6 5 5 4 3 4 5 5 5 5 5 4 3 3 2 2 2 1 1 3 2 2 2 3 5 6 4 3 3 4 7 9 10 10 10
10 11 11 11 11 11 10 9 7 6 5 5 6 7 7 7 8 7 7 6 6 5 4 4 3 3 2 2 2 3 3 4 3 5 6 4 5 8 10 12 11 11 11
12 12 12 12 13 13 12 11 9 7 6 6 6 7 8 9 10 10 9 7 6 6 6 6 6 6 6 5 5 5 4 5 6 5 5 7 6 9 11 11 12 12 12